Regional Weather Roundup
Issued by NWS

Home | Current Version | Previous Version | Text Only | Print | Product List | Glossary Off
Versions: 1 2 3 4 5 6 7 8 9 10 11 12 13 14 15 16 17 18 19 20 21 22 23 24 25 26 27 28 29 30 31 32 33 34 35 36 37 38 39 40 41 42 43 44 45 46 47 48 49 50

000
ASUS45 KABQ 201401
RWRNM
NEW MEXICO REGIONAL WEATHER ROUNDUP
NATIONAL WEATHER SERVICE ALBUQUERQUE NM
800 AM MDT WED SEP 20 2017

NOTE: "FAIR" MEANS FEW OR NO CLOUDS BELOW 12,000 FEET AGL WITH NO
       SIGNIFICANT WEATHER OR OBSTRUCTIONS TO VISION.

      THIS PRODUCT IS RELEASED AS TWO VERSIONS.  ONE VERSION NEAR
      THE TOP OF THE HOUR CONTAINING PRELIMINARY DATA FROM ALBUQUERQUE
      AND OTHER STATIONS.  A FINAL VERSION WITH ADDITIONAL DATA IS
      ISSUED ABOUT 10 MINUTES AFTER THE HOUR.

NMZ501-503-504-510>518-201500-
NORTHWEST PLATEAU/NORTHCENTRAL MOUNTAINS

CITY           SKY/WX    TMP DP  RH WIND       PRES   REMARKS
FARMINGTON     FAIR      49  29  46 E8        30.06R
LOS ALAMOS     FAIR      59  27  29 W3        30.17R
SANTA FE       FAIR      54  32  43 N3        30.12R
TAOS           FAIR      48  28  46 SE6       30.20R
ANGEL FIRE     FAIR      53  28  37 W9G20     30.20S

$$
NMZ402-403-502-505>509-201500-
WESTCENTRAL MOUNTAINS/SOUTHWEST MOUNTAINS

CITY           SKY/WX    TMP DP  RH WIND       PRES   REMARKS
GALLUP         FAIR      50  27  40 CALM      30.15R
GRANTS         FAIR      48  32  54 W3        30.15S
SILVER CITY    FAIR      56  41  56 NW3       30.13R

$$
NMZ407-409-411-412-201500-
SOUTHERN DESERTS

CITY           SKY/WX    TMP DP  RH WIND       PRES   REMARKS
DEMING         FAIR      62  47  57 W8        30.08R
LAS CRUCES     FAIR      65  46  49 W8        30.08R
HOLLOMAN AFB   FAIR      68  45  42 SE7       30.04R
ALAMOGORDO     FAIR      68  45  42 S10       30.04R
T OR C         FAIR      66  40  38 SW3       30.05R

$$
NMZ519>523-201500-
CENTRAL VALLEYS/CENTRAL HIGHLANDS

CITY           SKY/WX    TMP DP  RH WIND       PRES   REMARKS
ALBUQUERQUE    FAIR      60  38  43 SE5       30.09R
DOUBLE EAGLE   MOSUNNY   54  36  50 CALM      30.11R
CLINES CORNERS FAIR      59  34  39 W16       30.14S
BELEN          FAIR      60  36  40 CALM      30.08R
SOCORRO        FAIR      65  37  36 CALM      30.06R

$$
NMZ524>526-539-540-201500-
SOUTHCENTRAL MOUNTAINS

CITY           SKY/WX    TMP DP  RH WIND       PRES   REMARKS
RUIDOSO        FAIR      63  39  42 SW7       30.19R

$$
NMZ527>531-201500-
NORTHEAST HIGHLANDS/NORTHEAST PLAINS

CITY           SKY/WX    TMP DP  RH WIND       PRES   REMARKS
LAS VEGAS      FAIR      58  29  33 SE9       30.10R
RATON          FAIR      51  32  48 NE10      30.07R
CLAYTON        FAIR      56  26  31 N13       30.04R

$$
NMZ532>537-201500-
EASTCENTRAL PLAINS

CITY           SKY/WX    TMP DP  RH WIND       PRES   REMARKS
SANTA ROSA     FAIR      64  38  38 W9        29.99R
TUCUMCARI      FAIR      55  39  54 CALM      29.99R
CANNON AFB     FAIR      64  41  43 W7        30.00R
CLOVIS AIRPORT FAIR      62  42  47 N15       30.00

$$
NMZ028-029-538-201500-
SOUTHEAST PLAINS

CITY           SKY/WX    TMP DP  RH WIND       PRES   REMARKS
ROSWELL        FAIR      68  44  42 S8        29.97R
ARTESIA        FAIR      73  46  38 W8        29.97R
CARLSBAD       FAIR      75  50  41 W10       29.94R
HOBBS          SUNNY     70  55  60 SW7       29.97R


$$



USA.gov is the U.S. government's official web portal to all federal, state and local government web resources and services.